If you wish to contribute or participate in the discussions about articles you are invited to join SKYbrary as a registered user

 Actions

Ballina Byron Gateway Airport

From SKYbrary Wiki

YBNA
Airport
ICAO: YBNA – IATA: BNK
Summary
Name Ballina Byron Gateway Airport
Region Asia and Pacific
Territory "YB" is not in the list (AG, AN, AY, BG, BI, BK, C, CT, DA, DB, ...) of allowed values for the "ICAO Territory" property.
Location , New South Wales
Serving Ballina Byron Bay
Elevation 2.134 m
7 ft
7 ft2.134 m
Type medium airport
Coordinates 28° 50' 2.00" S, 153° 33' 45.00" E
Runways
Designator Length Width Surface ROPS
6/24 1900 m6,233.596 ft
30 m98.425 ft
ASP yes/yes


METAR
Observation YBNA 082300Z AUTO 27013KT 9999 // NCD 14/05 Q1013
Station Ballina Byron Gateway Airport
Date/Time 08 August 2020 23:00:00
Wind direction 270°
Wind speed 13 kts
Lowest cloud amount no clouds detected
Temperature 14°C
Dew point 5°C
Humidity 54%
QNH 1013 hPa
Weather condition n/a